Time,TemperatureF,DewpointF,PressureIn,WindDirection,WindDirectionDegrees,WindSpeedMPH,WindSpeedGustMPH,Humidity,HourlyPrecipIn,Conditions,Clouds,dailyrainin,SoftwareType,DateUTC
2014-08-22 00:01:00,70.3,69.1,29.98,SE,144,0.9,4.0,96,0.72,,,0.00,meteobridge,2014-08-22 04:01:00,
2014-08-22 00:02:00,70.3,69.1,29.98,SE,144,0.9,1.0,96,0.70,,,0.00,meteobridge,2014-08-22 04:02:00,
2014-08-22 00:07:00,70.3,69.1,29.98,SE,144,0.9,2.0,96,0.61,,,0.01,meteobridge,2014-08-22 04:07:00,
2014-08-22 00:12:00,70.3,69.1,29.98,SE,144,2.0,4.0,96,0.44,,,0.01,meteobridge,2014-08-22 04:12:00,
2014-08-22 00:17:00,70.3,69.1,29.98,SSE,163,2.0,4.0,96,0.39,,,0.01,meteobridge,2014-08-22 04:17:00,
2014-08-22 00:22:00,70.3,69.1,29.97,South,182,2.0,4.0,96,0.21,,,0.01,meteobridge,2014-08-22 04:22:00,
2014-08-22 00:27:00,70.3,69.1,29.97,SW,215,2.0,4.0,96,0.12,,,0.01,meteobridge,2014-08-22 04:27:00,
2014-08-22 00:32:00,70.3,69.1,29.96,SW,215,0.0,1.0,96,0.04,,,0.01,meteobridge,2014-08-22 04:32:00,
2014-08-22 00:37:00,70.3,69.1,29.96,SSW,209,0.9,2.0,96,0.03,,,0.01,meteobridge,2014-08-22 04:37:00,
2014-08-22 00:42:00,70.3,69.1,29.96,ESE,119,4.0,4.0,96,0.03,,,0.01,meteobridge,2014-08-22 04:42:00,
2014-08-22 00:47:00,70.3,69.1,29.96,ESE,120,4.9,5.0,96,0.02,,,0.01,meteobridge,2014-08-22 04:47:00,
2014-08-22 00:52:00,70.3,69.1,29.96,ESE,119,0.9,6.0,96,0.02,,,0.01,meteobridge,2014-08-22 04:52:00,
2014-08-22 00:57:00,70.3,69.1,29.96,SE,140,0.9,6.0,96,0.01,,,0.01,meteobridge,2014-08-22 04:57:00,
2014-08-22 01:02:00,70.3,69.1,29.96,East,96,4.0,6.0,96,0.01,,,0.01,meteobridge,2014-08-22 05:02:00,
2014-08-22 01:07:00,70.3,69.1,29.96,ENE,78,0.9,2.0,96,0.00,,,0.01,meteobridge,2014-08-22 05:07:00,
2014-08-22 01:12:00,70.3,69.1,29.96,NE,41,0.0,4.0,96,0.00,,,0.01,meteobridge,2014-08-22 05:12:00,
2014-08-22 01:17:00,70.3,69.1,29.96,NE,46,0.0,3.0,96,0.00,,,0.01,meteobridge,2014-08-22 05:17:00,
2014-08-22 01:22:00,70.3,69.1,29.96,NNE,18,2.0,5.0,96,0.00,,,0.01,meteobridge,2014-08-22 05:22:00,
2014-08-22 01:27:00,70.3,69.1,29.96,ENE,59,2.9,4.0,96,0.00,,,0.01,meteobridge,2014-08-22 05:27:00,
2014-08-22 01:32:00,70.3,69.1,29.96,East,101,2.9,5.0,96,0.00,,,0.01,meteobridge,2014-08-22 05:32:00,
2014-08-22 01:37:00,70.2,68.9,29.95,East,89,4.9,6.0,96,0.00,,,0.01,meteobridge,2014-08-22 05:37:00,
2014-08-22 01:42:00,70.2,68.9,29.95,East,86,4.9,8.0,96,0.00,,,0.01,meteobridge,2014-08-22 05:42:00,
2014-08-22 01:47:00,70.2,68.9,29.94,East,82,4.9,6.0,96,0.00,,,0.01,meteobridge,2014-08-22 05:47:00,
2014-08-22 01:52:00,70.2,68.9,29.94,East,82,0.9,2.0,96,0.00,,,0.01,meteobridge,2014-08-22 05:52:00,
2014-08-22 01:57:00,70.2,69.3,29.93,South,173,4.0,4.0,97,0.00,,,0.01,meteobridge,2014-08-22 05:57:00,
2014-08-22 02:02:00,70.2,69.3,29.93,South,173,0.9,2.0,97,0.00,,,0.01,meteobridge,2014-08-22 06:02:00,
2014-08-22 02:07:00,70.2,69.3,29.93,South,173,0.0,1.0,97,0.00,,,0.01,meteobridge,2014-08-22 06:07:00,
2014-08-22 02:12:00,70.2,69.3,29.93,South,175,0.9,1.0,97,0.00,,,0.01,meteobridge,2014-08-22 06:12:00,
2014-08-22 02:17:00,70.2,69.3,29.92,South,175,0.0,1.0,97,0.00,,,0.01,meteobridge,2014-08-22 06:17:00,
2014-08-22 02:22:00,70.2,69.3,29.92,South,175,0.9,1.0,97,0.00,,,0.01,meteobridge,2014-08-22 06:22:00,
2014-08-22 02:27:00,70.2,69.3,29.93,SSE,157,2.0,4.0,97,0.00,,,0.01,meteobridge,2014-08-22 06:27:00,
2014-08-22 02:32:00,70.3,69.4,29.93,ESE,102,6.0,6.0,97,0.00,,,0.01,meteobridge,2014-08-22 06:32:00,
2014-08-22 02:37:00,70.3,69.4,29.92,SE,134,2.0,6.0,97,0.00,,,0.01,meteobridge,2014-08-22 06:37:00,
2014-08-22 02:43:00,70.3,69.4,29.91,SE,126,2.0,5.0,97,0.00,,,0.01,meteobridge,2014-08-22 06:43:00,
2014-08-22 02:48:00,70.2,69.3,29.91,SSE,153,2.9,6.0,97,0.00,,,0.01,meteobridge,2014-08-22 06:48:00,